Flag for U.S.A. Weather past 2 weeks in Charlottesville, Virginia, U.S.A.

Now
66 °F

Sunny.


Feels Like: 66 °F
Forecast: 38 / 70 °F
Wind: 12 mph from Southwest

Location: Charlottesville-Albemarle Airport

Current Time: Mar 31, 2015 at 1:52:12 PM

Latest Report: Mar 31, 2015 at 12:53 PM


Visibility: 10 mi

Pressure: 29.75 "Hg

Humidity: 24%

Dew point: 28 °F

Location of CharlottesvilleLocation

Historic Weather in Charlottesville — Graph

°F

Charlottesville temperature yesterday

Maximum temperature yesterday: 63 °F (at 3:53 PM)
Minimum temperature yesterday: 42 °F (at 1:53 AM)
Average temperature yesterday: 52 °F

Past Weeks' High & Low Weather Summary

 TemperatureHumidityPressure
High80 °F (Mar 16, 3:53 PM)97% (Mar 20, 9:00 AM)30.40 "Hg (Mar 20, 9:00 AM)
Low25 °F (Mar 29, 5:53 AM)10% (Mar 18, 4:53 PM)29.61 "Hg (Mar 26, 7:53 PM)
Average47 °F49%30.05 "Hg
* Reported Mar 16 12:53 PM — Mar 31 12:53 PM, Charlottesville, Weather by CustomWeather, © 2015

Note: Actual official high and low records may vary slightly from our data, if they occured in-between our weather recording intervals... More about our weather records

Advertising

Charlottesville weather history for previous 24 hours

 ConditionsComfort  
Time TempWeatherWind HumidityBarometerVisibility
12:53 PM
Tue, Mar 31
66 °FSunny.12 mph24%29.75 "Hg10 mi
11:53 AM63 °FSunny.21 mph28%29.81 "Hg10 mi
10:53 AM60 °FSunny.21 mph30%29.86 "Hg10 mi
9:53 AM57 °FSunny.18 mph33%29.90 "Hg10 mi
8:53 AM51 °FSunny.10 mph41%29.92 "Hg10 mi
7:53 AM46 °FClear.9 mph48%29.94 "Hg10 mi
6:53 AM46 °FClear.8 mph44%29.94 "Hg10 mi
5:53 AM46 °FClear.7 mph44%29.93 "Hg10 mi
4:53 AM45 °FClear.8 mph45%29.92 "Hg10 mi
3:53 AM51 °FClear.6 mph33%29.94 "Hg10 mi
2:53 AM51 °FClear.3 mph35%29.96 "Hg10 mi
1:53 AM51 °FClear.6 mph33%29.97 "Hg10 mi
12:53 AM51 °FClear.6 mph33%29.96 "Hg10 mi
11:53 PM
Mon, Mar 30
51 °FClear.6 mph32%29.97 "Hg10 mi
10:53 PM51 °FClear.6 mph31%29.98 "Hg10 mi
9:53 PM55 °FClear.6 mph25%29.98 "Hg10 mi
8:53 PM55 °FClear.7 mph24%29.96 "Hg10 mi
7:53 PM56 °FSunny.7 mph23%29.92 "Hg10 mi
6:53 PM60 °FSunny.12 mph19%29.89 "Hg10 mi
5:53 PM62 °FSunny.10 mph18%29.87 "Hg10 mi
4:53 PM63 °FSunny.13 mph17%29.85 "Hg10 mi
3:53 PM63 °FSunny.12 mph21%29.86 "Hg10 mi
2:53 PM62 °FSunny.13 mph22%29.87 "Hg10 mi
1:53 PM62 °FPartly sunny.10 mph30%29.88 "Hg10 mi
Weather by CustomWeather, © 2015

See weather overviewHow to use our weather pages